STARLINK-2753, 48696

Orbit data source: Space-Track

STARLINK-2753, 48696 is a payload satellite owned by SpaceX/Seattle (US) in LEO that was launched on Wed, 26 May 2021 UTC via an FALCON 9 launch vehicle from the Air Force Eastern Test Range (AFETR). Payload-class satellites include a variety of spacecraft equipped with specific instruments for various scientific and technological missions. These include communications satellites like Starlink; space stations such as the ISS; scientific satellites like the Hubble; Earth observation satellites from companies like Planet Labs, Umbra, and HawkEye 360; GPS; miniature CubeSats for education and research; and military/defense satellites.

Loading next visibility...
Identifier
48696, 2021-044BL
Orbit
LEO
Country
Flag of USUS
Related business
Manufacturer
SpaceX/Seattle
Mission
Operational Commercial Communications
Bus & Motor
STARLINK, Unknown motor
Mass
260 kg wet, ~248 kg dry
Launch date (UTC)
2021-05-26 (5 years ago)
Launch vehicle
FALCON 9
Launch site
Air Force Eastern Test Range (AFETR)
Object type
Payload
Rocket body
Debris
Shape & HBR
Box + 1 Pan, 10.1 m
Radar Cross Section
13.562 m², Large (>1 m²)

Expand to show TLE details & history
Last TLE update: 19 hours ago

TLE from 19 hours ago
0 STARLINK-2753
1 48696U 21044BL  25349.71667889  .00000661  00000-0  63276-4 0  9990
2 48696  53.0567 108.6337 0001164  88.6672 271.4450 15.06400117251475
Epoch: 2025-12-15T17:12Z
TLE epoch observation values (Epoch: 2025-12-15T17:12:01.056Z)
Latitude
-0.00003°
Longitude
126.01803°
Altitude
548.07 km
Speed
7.589 km/s
True Right ascension
07h 14m 32s
True Declination
0° 00' 00"
Sunlit
Object was in full shadow at epoch
Visualization orbit readout
Latitude
Unknown
Longitude
Unknown
Altitude
Unknown
Speed
Unknown
Apparent Right ascension
Unknown
Apparent Declination
Unknown
Sunlit
N/A
Visualization observer readout
Local Sidereal Time
10:36:57
Azimuth
Unknown
Elevation
Unknown
Doppler factor
Unknown
Orbital elements
Apogee altitude
548.288 km
Perigee altitude
546.675 km
Semi-major axis
6,925.619 km
Eccentricity
0.00012
Inclination
53.0567°
RAAN
108.6337°
Arg. of periapsis
88.6672°
True anomaly
271.43167°
Mean anomaly
271.445°
Eccentric anomaly
271.43833°
Mean motion
3.76578 °/min
Orbital period
95.6 mins
BSTAR
0.000063276
Loading maneuver chart data...
Computing Atmospheric mass density...
Loading historical data...
Loading historical data...
Loading historical data...
Loading historical data...
Loading historical data...
Loading historical data...
Loading historical data...

Documentation

Showing up to 5 results
|